Wind_Speed
33 35 36 38 41 44 47 48 48 47 46 45 45 45 45 47 51 52 51 50 51 51 49 48 49 50 50 51 50 49 48 46 45 44 45 47 46 44 44 43 42 40 39 39 38 37 37 36 36 35 35 35 35 35 35 35 35 34 32 31 31 33 35 36 37 36 35 34 35 33 32 32 31 30 30 29 28 25 24 23 23 23 23 23 23
31 33 35 36 39 42 45 46 45 45 45 45 44 43 42 41 42 45 48 50 50 51 51 51 50 50 51 52 51 50 49 47 47 49 50 49 46 45 44 43 42 41 40 40 39 38 38 37 37 37 37 37 37 37 37 37 36 34 32 31 32 34 36 37 37 37 35 35 35 35 34 33 33 32 32 31 30 28 26 25 24 24 25 25 25
30 32 33 35 38 41 43 44 43 43 44 46 46 44 41 39 38 40 44 45 46 46 47 50 50 50 53 56 55 54 52 49 50 51 50 47 46 45 44 43 43 42 41 41 40 39 39 39 39 39 38 39 39 38 38 37 36 34 32 32 33 35 36 37 37 36 35 35 36 36 35 35 34 34 34 33 32 31 30 28 27 27 27 28 28
31 32 33 34 37 40 42 43 43 42 43 46 48 47 43 40 39 40 42 43 44 44 44 45 44 44 48 53 55 54 53 51 51 51 49 47 46 45 44 44 44 43 43 42 41 41 41 41 40 40 39 40 40 40 39 38 36 35 33 32 34 36 36 37 36 35 34 35 36 36 36 36 35 35 36 35 34 34 33 31 30 30 31 31 31
31 33 35 36 37 40 42 44 45 44 43 44 46 48 46 43 40 39 39 40 41 43 44 44 44 42 42 47 51 51 50 50 50 50 49 47 46 44 44 44 44 43 43 43 42 43 43 42 41 40 40 41 41 40 40 38 37 34 32 32 34 36 36 37 36 35 35 35 36 37 37 37 37 37 37 37 36 36 36 35 34 33 33 33 34
33 35 38 37 37 41 43 44 45 43 42 41 43 45 45 42 40 39 39 39 39 41 43 45 46 45 42 45 49 48 48 48 47 47 48 46 45 44 44 44 44 44 44 44 44 44 43 43 42 41 41 41 41 41 40 38 36 34 33 34 35 36 36 37 37 36 36 35 35 37 38 38 39 38 38 38 38 38 38 38 37 36 36 36 37
37 39 40 39 37 40 42 43 44 43 42 41 42 42 41 39 39 39 41 41 40 41 43 45 48 49 49 51 52 49 47 46 44 44 45 45 45 45 45 45 45 45 45 44 43 43 43 42 41 41 41 41 41 41 39 37 36 35 35 35 35 35 36 37 37 36 36 35 36 37 38 39 40 40 39 39 39 40 40 40 40 40 39 39 40
42 42 42 41 39 40 42 43 43 43 42 42 42 40 39 39 39 39 41 43 43 42 42 43 46 48 49 52 54 51 48 46 43 43 44 45 47 47 47 47 46 45 44 41 40 40 41 41 41 40 40 39 39 39 38 37 36 35 36 36 33 33 35 36 36 37 36 36 37 39 40 40 40 41 40 40 41 41 42 42 42 42 43 43 43
45 46 44 42 41 41 42 42 42 42 42 42 43 41 39 39 39 39 40 41 41 42 43 43 44 45 45 48 52 50 46 44 43 43 45 47 48 48 47 46 44 41 40 39 39 40 42 42 42 40 39 38 38 38 38 37 36 34 37 37 33 31 33 35 36 38 38 38 40 42 43 42 41 41 41 42 42 43 43 43 43 44 45 46 46
44 50 47 44 42 42 42 42 41 41 41 43 44 43 41 40 39 41 41 39 38 38 39 40 41 43 44 46 50 48 42 42 43 43 44 45 46 46 44 43 42 42 41 42 43 44 44 44 43 41 39 38 38 39 38 37 35 34 36 37 35 34 35 36 37 39 40 42 44 44 44 44 43 42 42 43 44 44 45 45 46 46 47 48 49
37 49 52 48 46 45 43 43 43 42 42 43 44 44 44 44 43 44 45 43 41 39 37 37 39 42 45 48 50 47 43 42 44 44 43 44 44 44 44 45 46 46 46 47 47 46 46 45 43 41 40 40 39 40 40 37 35 35 37 38 38 38 39 40 41 42 43 44 45 45 45 45 44 44 44 44 45 46 46 47 48 48 49 50 51
30 41 51 53 52 51 49 47 47 45 44 45 45 45 46 46 45 46 47 46 45 43 41 41 42 43 46 49 51 50 47 46 46 45 45 45 46 48 48 49 49 49 49 49 49 48 47 46 44 43 42 41 40 41 41 39 37 37 39 40 42 43 43 43 43 43 44 45 45 45 45 45 45 45 45 46 47 47 48 49 49 50 51 52 53
27 33 44 52 55 55 55 54 52 51 48 47 47 49 49 47 45 46 48 47 47 47 46 46 45 46 47 49 51 50 48 47 47 46 46 46 48 50 50 50 50 51 51 50 49 49 48 47 46 45 44 44 42 42 42 41 40 39 40 42 43 44 44 43 43 43 43 44 44 44 45 45 45 46 46 47 48 49 50 50 51 52 53 55 56
30 31 36 46 52 55 56 56 56 56 54 51 50 51 52 50 48 47 48 49 49 48 47 46 46 46 48 50 52 51 49 48 48 47 46 47 48 50 50 51 52 52 51 50 50 49 48 47 46 46 46 45 44 43 44 44 42 41 41 42 43 43 43 43 44 44 44 44 44 44 45 46 47 47 48 49 50 51 52 53 54 55 56 57 58
34 33 34 39 47 52 54 55 56 56 56 55 53 52 53 53 51 49 49 49 49 48 47 46 44 44 46 49 52 52 51 51 51 49 47 47 49 50 51 52 52 52 51 51 50 49 48 47 47 46 46 45 45 45 45 45 44 44 44 44 44 44 44 45 46 46 46 46 46 45 46 47 48 49 50 51 53 54 55 56 57 58 59 60 61
37 37 36 36 41 47 52 54 55 55 54 54 52 51 51 52 53 52 50 50 51 50 49 48 45 44 46 49 50 51 51 52 51 50 50 50 50 50 51 52 52 52 52 52 51 50 49 48 48 48 47 47 47 47 47 47 47 47 46 46 47 47 47 48 49 49 49 48 48 47 48 48 49 51 52 54 55 57 58 59 60 61 61 62 63
39 39 39 39 39 41 46 51 54 55 55 54 53 52 51 52 53 53 50 49 50 52 52 50 48 47 49 50 52 53 54 55 55 54 54 54 53 53 53 53 53 53 53 52 52 51 51 51 51 51 50 50 50 50 50 50 50 50 49 49 50 50 50 51 52 52 52 51 50 50 49 50 51 53 54 56 58 59 60 61 63 64 64 65 66
41 41 42 42 42 42 43 45 48 51 54 56 56 55 55 54 54 54 52 50 51 52 52 51 50 51 52 52 53 54 54 54 55 55 56 56 56 56 55 54 54 53 53 53 53 53 53 54 54 54 54 53 53 53 52 52 52 52 52 52 52 53 54 55 55 55 54 53 52 51 51 52 53 55 57 58 60 61 63 64 65 66 67 68 69
43 43 44 45 45 45 45 44 44 46 49 52 55 56 57 57 57 56 55 54 55 55 54 53 53 54 54 53 53 55 54 53 55 55 56 56 56 55 55 54 55 55 55 55 56 56 56 56 56 56 55 55 54 54 54 54 54 54 54 54 55 56 58 59 59 57 56 55 54 53 52 54 56 57 59 60 62 63 65 66 68 69 69 70 72
44 45 46 47 48 49 49 47 46 45 46 48 51 53 55 56 57 57 56 57 58 59 58 57 56 55 54 53 53 54 54 54 56 56 55 55 53 53 53 53 54 54 54 54 54 54 55 56 56 56 56 57 56 56 56 57 56 56 55 56 58 60 61 62 61 59 58 57 55 54 54 56 58 59 60 62 64 66 67 69 70 71 72 73 75
45 46 47 48 49 50 51 51 49 48 48 48 49 51 53 55 56 57 58 59 60 61 61 60 60 59 57 56 55 53 53 56 58 57 56 56 54 53 54 53 53 53 52 52 53 54 56 58 59 60 60 60 60 59 59 59 58 58 58 60 62 63 63 63 62 60 59 58 57 57 57 58 59 61 62 64 66 68 70 71 73 74 75 76 78
45 47 48 50 51 52 52 53 53 52 50 50 50 51 53 56 58 59 60 61 62 62 62 62 61 61 61 61 60 57 55 57 57 57 58 58 56 55 56 57 56 55 54 54 56 58 60 62 64 63 63 63 64 63 63 63 62 62 62 63 64 64 63 62 62 61 60 60 60 60 61 61 62 64 65 67 69 70 72 74 76 77 78 79 80
43 46 48 51 52 54 54 54 55 54 54 53 52 52 54 57 60 62 63 63 64 63 63 61 60 60 60 61 61 60 58 57 56 56 57 58 56 55 56 56 56 56 55 55 56 58 60 61 62 63 63 64 66 66 66 66 66 66 66 65 65 64 63 63 63 63 63 62 63 64 64 65 66 67 69 70 72 74 75 76 77 78 80 80 81
43 45 47 50 53 54 56 56 57 57 57 56 55 55 55 58 61 63 65 66 66 65 64 63 62 60 59 58 58 59 59 59 59 58 57 56 56 56 55 55 54 55 56 56 57 59 61 62 63 64 64 66 67 68 68 70 70 69 69 69 67 66 65 65 66 67 67 67 67 68 69 70 71 72 73 74 75 75 76 76 77 78 80 81 82
45 45 46 49 51 54 56 58 59 60 60 59 58 58 58 59 61 63 65 67 69 69 68 67 66 64 62 60 60 61 62 62 62 60 57 55 55 57 59 59 58 56 56 58 59 60 62 65 67 67 68 70 71 72 72 72 72 72 71 71 70 69 69 70 71 71 71 71 71 72 72 73 74 75 76 76 76 76 77 79 80 81 82 83 84
49 48 48 48 50 52 55 57 60 61 63 63 62 61 61 61 62 63 66 68 70 71 71 70 69 68 66 63 63 65 66 67 68 67 64 62 62 63 65 66 66 64 63 63 64 65 66 69 71 73 74 75 75 75 75 74 74 74 74 73 72 72 72 73 72 72 72 72 73 74 75 76 77 78 79 80 81 82 83 84 84 85 86 86 87
55 53 52 51 51 52 54 56 58 61 63 64 65 65 65 64 63 64 66 68 70 71 73 73 72 72 71 68 67 68 69 70 72 73 73 72 72 72 72 72 73 73 73 71 71 71 71 72 74 76 77 78 78 78 78 76 75 74 73 72 72 72 73 73 74 74 75 76 77 78 79 80 82 83 85 86 87 88 88 88 88 89 90 90 91
59 58 57 56 55 55 55 56 58 60 62 64 65 67 68 68 67 66 67 69 70 71 73 75 75 75 74 73 72 72 72 73 75 76 76 76 76 77 77 77 77 78 78 77 76 76 76 76 77 78 79 80 81 81 80 79 77 76 75 75 76 76 77 78 79 80 81 83 84 85 86 87 88 89 90 90 90 90 90 91 92 93 93 94 94
63 62 62 61 61 59 58 58 59 60 61 63 64 66 69 72 72 70 69 70 71 72 73 75 76 77 77 77 76 76 76 76 77 77 77 76 76 77 79 79 79 79 80 79 79 80 80 81 81 81 82 82 82 82 81 80 80 80 80 81 82 82 83 84 85 86 87 88 89 90 91 92 92 92 92 92 92 92 93 94 95 95 96 97 97
66 66 66 65 65 64 63 62 61 62 63 64 65 66 68 71 74 74 74 73 73 73 73 75 77 79 79 79 80 80 80 80 80 80 80 80 79 80 80 81 81 81 81 82 83 83 84 84 84 84 84 84 85 85 84 84 84 85 85 86 87 88 89 89 90 90 91 92 93 94 94 94 94 94 94 94 94 95 96 97 98 98 99 99 99
68 68 68 68 68 68 67 66 65 65 65 65 66 67 68 70 73 75 77 77 76 75 75 76 77 79 81 82 82 82 83 83 83 84 84 85 85 85 85 83 83 84 84 85 86 87 87 87 87 87 87 87 88 89 89 89 90 90 91 92 92 93 93 93 93 93 94 94 95 95 95 95 95 95 95 96 96 97 98 99 100 101 101 102 102
70 70 70 70 70 70 70 70 69 69 68 68 68 68 69 71 73 75 76 78 79 79 79 79 78 78 80 82 83 84 84 86 86 87 88 88 88 89 88 87 86 87 87 88 88 89 90 90 90 90 90 91 91 92 93 93 93 93 93 94 94 95 95 95 95 96 96 96 96 96 96 96 96 97 97 98 99 100 101 102 103 103 104 104 104
70 71 71 72 72 71 71 71 71 71 71 71 71 71 70 71 73 75 76 77 78 80 82 82 82 81 81 82 83 84 85 86 87 88 89 89 89 89 90 89 89 89 90 90 90 90 91 91 91 91 92 92 93 93 94 94 94 94 94 94 95 95 96 96 96 96 97 97 97 97 97 98 98 99 100 101 102 103 104 104 105 105 106 106 107
68 69 70 70 71 71 71 71 71 72 72 72 72 72 71 71 73 75 77 78 78 80 82 83 84 84 83 83 84 86 87 88 89 89 90 90 91 91 91 91 91 91 92 92 93 93 92 92 91 91 91 92 92 92 92 93 93 93 94 94 95 95 96 96 97 98 98 99 99 99 100 100 101 102 103 103 104 105 106 106 106 107 108 109 111
66 66 66 67 67 68 68 68 68 68 69 70 70 70 70 70 71 73 76 78 79 80 81 83 84 85 86 86 86 88 89 91 92 92 92 92 92 93 93 93 93 93 93 93 94 94 94 94 94 93 93 93 94 94 94 94 94 95 95 96 97 98 99 100 101 102 102 102 102 102 103 103 104 105 105 106 106 106 107 108 109 110 111 113 115
60 62 63 63 64 64 64 65 65 65 65 65 65 66 65 66 67 70 72 76 79 81 82 83 84 85 86 87 88 89 90 92 94 96 97 97 96 96 95 95 94 94 94 94 94 95 95 95 95 95 96 96 97 97 97 98 98 99 100 100 102 103 104 104 105 105 105 105 105 106 106 106 106 106 107 107 107 108 110 111 113 114 116 117 118
53 54 56 57 59 60 61 62 62 63 63 63 63 63 62 62 63 65 68 71 74 78 81 83 84 85 86 87 89 90 92 93 95 97 98 100 101 101 100 100 99 98 98 97 97 97 98 98 98 98 98 99 99 100 100 101 101 102 102 103 104 105 106 106 107 107 107 108 108 108 108 108 108 108 108 109 111 113 115 116 118 119 120 121 122
47 48 50 51 53 54 56 58 59 61 62 63 63 63 62 62 62 63 64 66 69 72 76 80 83 85 86 87 89 90 92 94 96 97 99 100 102 104 105 106 106 105 105 104 104 104 104 104 104 104 104 103 103 103 103 103 104 105 105 105 106 106 107 107 108 108 108 109 109 109 110 110 111 112 114 115 117 119 120 121 122 122 123 124 124
45 45 46 46 48 49 51 53 55 57 58 60 62 63 64 64 64 64 64 65 66 68 71 74 78 81 84 86 88 89 90 93 95 98 100 101 102 103 105 107 109 111 112 112 111 111 110 109 109 108 108 107 107 107 108 109 109 110 110 110 110 110 110 110 110 111 111 112 112 113 114 115 117 119 120 121 122 123 123 124 124 125 125 126 126
44 45 45 45 45 46 47 48 50 52 54 56 58 61 63 64 65 66 66 67 67 68 69 70 73 76 79 83 86 88 89 91 93 96 99 101 103 104 105 106 108 110 112 114 115 116 116 115 115 115 114 114 114 115 115 115 115 114 113 113 113 113 114 114 115 115 116 117 118 118 120 121 122 123 124 124 125 125 126 126 127 127 127 126 126
40 41 43 44 44 45 45 46 47 48 50 52 54 57 59 61 63 65 67 68 69 70 70 71 72 73 75 77 80 84 86 89 91 93 96 98 101 104 106 107 108 109 110 112 114 116 117 118 118 119 119 119 119 119 119 119 118 117 117 117 117 117 117 118 119 119 120 121 122 122 123 124 125 126 127 127 128 128 128 128 127 126 126 125 123
39 39 39 40 41 43 44 45 46 47 48 50 52 54 56 58 60 62 64 66 68 69 71 72 73 74 75 76 77 79 82 84 87 90 93 95 98 100 103 105 107 109 110 111 112 113 114 115 116 117 118 119 119 120 120 120 121 121 121 121 121 122 122 123 123 124 125 125 126 127 127 128 129 129 129 128 128 127 127 126 125 124 123 122 120
40 40 40 40 40 40 40 42 44 45 47 48 50 52 54 56 58 59 61 63 65 66 69 71 73 74 76 78 79 80 81 82 84 86 88 91 94 96 99 101 104 106 108 110 111 113 113 114 114 114 115 116 117 118 119 120 121 122 122 123 124 124 125 125 126 126 127 127 127 127 127 127 127 127 126 126 125 125 124 123 122 121 120 119 119
38 39 40 41 41 41 40 40 41 42 44 46 48 50 52 54 56 57 59 61 63 64 66 68 70 72 74 76 78 80 81 83 84 85 86 88 89 92 94 96 99 101 103 106 108 110 112 113 114 114 115 115 116 117 118 119 119 120 120 121 121 122 122 123 123 123 124 124 124 124 124 124 124 124 124 124 123 122 121 120 119 119 118 117 116
34 35 37 39 40 41 42 42 42 42 43 44 45 47 49 51 53 55 57 59 61 63 64 66 67 69 72 74 76 78 79 81 84 85 87 88 89 90 91 92 94 96 98 100 102 104 106 108 110 111 113 114 115 116 117 118 119 120 120 120 121 121 121 122 122 122 122 123 123 123 123 123 123 122 121 121 120 119 119 118 117 116 115 114 113
30 31 33 34 36 38 40 41 42 43 43 44 44 45 47 49 51 53 55 57 59 60 62 64 66 68 70 72 74 75 77 79 81 83 85 87 89 90 91 92 93 94 95 97 98 99 101 102 103 105 106 108 109 111 112 113 114 115 116 117 117 117 118 118 119 119 119 119 119 119 119 119 119 119 119 118 118 117 116 115 114 114 113 111 110
31 30 30 31 32 34 35 37 39 40 42 43 44 45 46 47 48 50 52 54 56 57 59 61 63 65 67 69 71 72 74 75 78 80 82 84 86 88 90 91 93 94 96 97 98 99 100 100 101 102 103 104 105 106 107 108 109 110 110 111 112 113 113 114 114 115 115 115 116 116 116 117 117 117 116 116 115 114 113 112 111 110 109 107 104
32 31 30 30 30 31 32 33 35 37 38 40 42 43 45 46 47 49 50 51 53 54 56 58 60 62 63 65 67 68 70 71 73 75 77 79 81 83 86 88 90 92 94 96 97 98 100 101 102 102 103 104 105 106 107 107 108 109 110 110 111 112 112 113 113 113 114 114 114 114 114 115 114 114 113 113 112 111 110 108 106 104 102 100 97
33 33 32 31 30 30 30 31 32 33 35 36 38 40 42 44 45 47 48 50 51 52 53 55 56 58 60 62 63 65 66 67 69 70 72 74 76 78 80 82 85 87 89 92 93 95 97 99 100 101 102 103 104 105 106 107 108 109 109 110 111 111 112 112 112 112 112 112 112 112 112 111 111 110 109 108 106 105 103 101 99 97 95 92 89
33 33 33 33 32 32 31 31 31 32 32 33 35 36 38 40 42 44 46 48 49 50 51 52 53 55 57 58 60 62 63 65 66 67 68 69 70 72 74 76 79 81 83 86 88 90 92 94 95 97 98 99 100 101 102 103 105 105 106 107 108 108 108 108 108 108 108 108 107 107 106 105 104 103 102 100 99 97 96 94 92 90 87 84 81
34 34 34 34 34 34 33 33 32 32 32 32 33 34 35 36 38 40 42 45 47 48 48 49 50 51 53 55 57 59 60 62 63 64 65 66 68 68 70 71 73 75 77 79 81 83 85 87 89 90 92 93 94 95 97 98 99 99 100 101 101 102 102 102 102 101 101 100 100 99 98 97 96 95 94 93 91 90 88 86 84 81 79 76 73
Wind_Direction
244 237 232 231 229 225 224 226 226 224 227 229 231 234 237 238 239 239 238 236 233 232 235 237 239 243 248 252 255 258 260 261 258 259 266 269 267 265 265 266 267 268 268 269 270 272 274 275 276 277 278 277 276 277 278 278 277 276 276 274 272 271 272 275 279 283 288 291 292 292 292 292 290 286 287 290 293 297 301 302 301 298 295 294 293
236 230 228 227 225 222 220 223 223 222 224 226 227 230 233 235 237 239 239 240 240 239 238 238 241 245 250 253 255 257 258 257 257 262 267 266 263 262 263 264 266 267 268 269 270 272 273 274 276 277 277 277 277 278 278 278 277 276 274 273 271 271 271 274 277 282 286 288 289 290 290 291 290 285 284 287 289 292 296 299 300 299 296 293 293
228 224 222 221 220 219 218 219 219 219 221 224 226 229 231 231 231 232 234 236 239 241 241 241 244 249 253 254 254 255 257 257 259 263 263 260 260 261 262 264 266 267 267 268 270 271 272 273 275 276 277 277 278 278 278 277 276 275 273 271 270 270 271 273 276 279 282 285 287 288 289 290 290 287 284 285 287 288 290 294 297 298 297 296 295
222 218 215 214 215 215 215 215 216 218 221 224 226 228 230 229 227 227 229 232 234 235 237 239 242 246 251 252 251 253 256 257 258 258 257 257 258 260 262 263 264 266 266 267 268 270 271 273 274 275 276 276 277 277 276 276 276 274 273 272 271 271 272 274 276 278 281 283 285 286 288 289 290 288 285 284 286 286 286 289 293 296 298 298 298
216 211 206 205 209 211 212 214 216 219 222 224 225 227 229 230 228 227 229 233 235 235 235 236 236 238 244 249 249 249 252 253 253 253 254 255 257 258 260 261 262 264 265 265 267 269 270 272 273 274 274 275 275 275 275 276 276 274 273 274 273 274 275 277 278 279 280 281 284 285 287 288 289 287 285 283 284 285 284 284 288 292 296 297 297
210 206 201 202 207 210 210 213 217 220 223 225 226 227 229 231 231 230 230 231 233 235 235 235 234 234 237 243 246 246 248 250 251 252 253 255 257 257 258 259 261 262 263 264 266 268 270 271 272 273 273 274 274 274 275 275 275 275 276 276 275 275 277 277 278 278 278 281 285 286 286 287 287 286 284 283 283 284 283 283 284 288 292 294 295
205 203 201 202 206 209 210 213 217 219 222 225 226 227 227 228 229 229 230 230 231 233 234 235 236 237 238 243 246 247 249 251 252 253 255 256 257 257 257 258 260 261 262 264 265 267 269 270 272 273 273 273 273 273 274 275 276 278 278 275 274 276 277 276 276 276 278 283 288 289 287 286 285 285 283 283 283 284 283 282 282 284 287 291 293
204 203 203 204 206 208 210 213 216 218 220 222 225 226 226 226 227 228 231 233 232 232 233 234 236 239 241 246 249 250 251 253 254 254 255 255 255 256 256 257 258 259 260 262 264 266 268 270 272 273 272 272 272 272 274 275 277 279 277 275 274 275 276 276 276 277 280 285 289 290 288 286 285 284 283 283 283 283 283 282 281 282 284 288 291
207 205 205 206 207 209 211 213 216 219 220 221 224 225 226 228 229 229 232 236 237 236 237 238 239 242 244 246 250 253 254 254 253 254 254 253 253 254 255 256 256 257 258 261 264 266 269 271 273 273 273 273 273 274 275 276 278 278 276 276 276 275 276 278 279 279 281 284 288 289 288 286 285 284 283 283 283 284 284 283 282 281 283 286 290
210 208 207 208 208 209 211 213 216 218 220 221 223 224 226 229 229 227 229 232 234 236 239 242 245 248 249 248 252 256 258 255 253 252 253 252 252 252 253 254 255 256 259 263 266 269 270 272 273 273 274 274 274 275 275 277 279 278 275 276 278 277 278 280 281 281 282 284 287 288 287 286 285 285 284 284 284 285 284 283 282 282 282 285 288
217 213 212 212 212 212 212 213 215 217 219 221 223 224 226 227 227 226 227 228 229 232 235 239 243 248 249 248 251 256 257 255 253 251 251 252 253 253 253 254 256 258 262 266 268 269 270 272 273 273 274 275 275 276 277 280 281 279 277 277 278 279 281 282 282 283 283 284 286 286 286 285 285 285 285 285 285 285 285 283 283 282 282 284 287
228 220 218 218 218 217 217 217 218 219 219 220 221 222 224 225 226 228 228 229 232 237 239 239 240 244 246 246 248 252 254 254 252 251 250 252 253 254 255 256 258 260 263 266 267 268 269 271 272 272 273 274 275 277 280 282 282 280 278 278 278 280 282 283 284 284 283 284 284 284 284 284 284 285 285 285 285 285 284 283 282 282 283 285 287
242 230 223 222 222 221 221 221 221 221 221 220 220 220 221 225 229 233 235 237 239 243 244 243 241 243 246 248 248 249 251 251 251 252 252 252 252 253 255 256 258 260 263 266 267 267 269 270 271 272 272 273 275 277 279 282 282 281 279 279 279 280 282 283 284 284 284 283 283 283 283 283 283 284 284 284 283 283 283 282 282 282 283 285 287
250 242 231 225 223 222 221 222 223 224 224 224 223 222 223 226 231 236 240 241 242 243 243 243 242 243 246 251 252 251 251 253 253 254 254 252 251 252 254 256 258 261 263 265 266 267 268 269 271 271 272 273 275 276 278 280 281 280 280 280 280 281 282 284 285 286 285 285 285 285 284 283 283 283 283 283 283 282 281 281 281 282 284 286 288
248 248 242 232 228 225 223 222 224 225 226 227 227 228 229 230 231 234 237 239 240 241 239 239 241 243 245 250 253 253 253 254 254 254 253 252 252 253 254 256 258 261 264 265 266 266 268 270 271 271 271 273 274 275 276 278 278 279 280 281 281 282 284 286 287 287 288 288 288 287 286 284 283 282 282 282 282 281 280 281 282 283 285 286 288
243 245 246 243 236 231 228 226 226 225 225 226 227 229 230 231 231 232 235 237 238 239 238 237 239 241 244 247 250 251 251 251 252 252 253 253 254 254 256 258 260 262 263 265 266 267 269 270 271 271 272 273 274 275 275 276 277 279 280 281 282 284 286 287 288 289 289 289 289 288 286 284 283 282 281 281 281 280 281 281 283 284 285 286 288
239 240 242 244 244 240 235 232 231 231 230 228 228 228 228 229 230 230 232 236 238 240 240 238 237 240 243 246 249 251 252 252 253 254 255 256 257 259 261 262 263 264 265 266 267 269 269 270 271 271 272 272 273 274 275 276 277 278 279 281 282 285 286 287 288 288 289 289 288 286 285 283 282 281 280 279 279 280 281 282 283 284 285 286 288
238 237 237 238 241 243 242 238 235 234 235 234 233 231 230 230 230 231 232 235 237 239 239 237 236 239 243 245 249 252 254 255 256 256 257 258 260 262 264 264 265 265 266 267 268 269 270 271 270 270 271 272 273 274 275 277 277 278 278 280 282 284 285 286 287 288 288 287 286 284 283 281 280 279 278 278 278 279 280 282 283 284 285 287 288
238 237 236 235 235 238 241 242 240 237 235 235 235 234 233 233 234 234 235 235 235 235 236 234 234 239 242 243 246 250 252 255 257 257 258 260 261 262 264 265 266 267 268 269 271 271 272 271 271 270 271 272 273 273 274 275 276 277 278 279 281 282 284 285 287 287 287 286 285 283 281 279 278 277 277 278 279 280 281 282 283 285 286 288 289
238 237 236 235 234 234 235 239 241 240 238 235 234 234 233 233 234 234 234 234 233 233 233 232 232 236 240 242 244 248 251 253 255 257 259 260 261 262 263 264 266 267 269 271 272 272 271 270 270 270 271 272 272 272 273 274 276 277 278 279 280 282 283 285 286 286 285 285 284 281 279 277 277 277 278 278 279 280 282 283 284 285 286 288 289
240 237 236 236 235 234 233 234 236 239 239 238 235 233 231 230 230 230 230 230 231 231 232 232 232 234 237 240 244 248 252 254 256 258 259 260 261 262 263 264 264 265 266 266 266 266 266 267 267 268 270 271 271 272 273 275 276 277 278 279 280 281 283 284 284 284 284 283 282 280 278 277 277 278 278 279 280 281 282 283 285 286 287 288 289
245 241 238 237 235 235 234 234 234 235 237 238 237 234 232 230 227 227 228 228 229 230 231 232 234 236 239 241 243 246 250 255 258 260 260 260 261 262 263 263 263 262 262 263 264 265 267 268 269 270 272 272 272 273 275 276 277 278 279 280 280 281 282 282 282 282 282 281 280 279 278 277 277 278 278 280 281 282 283 284 285 286 286 287 287
250 247 243 240 238 236 235 235 234 233 233 235 236 235 234 232 229 228 228 228 229 230 231 233 234 237 240 242 243 244 248 252 256 258 259 259 260 261 260 261 261 261 261 262 263 266 267 269 270 272 273 274 275 276 277 278 280 281 282 282 282 282 282 282 282 282 281 280 279 279 278 278 278 279 280 281 282 283 283 284 284 285 285 286 288
254 251 248 245 242 239 237 236 235 235 233 233 234 234 234 234 233 231 230 230 230 231 233 234 236 237 240 243 244 244 245 248 251 254 256 257 257 256 255 256 257 259 260 261 262 265 267 268 268 269 271 272 274 275 277 278 280 282 282 283 283 282 281 281 281 281 280 280 279 278 278 278 279 280 281 282 282 283 284 285 286 287 288 290 292
254 253 252 250 247 244 241 238 237 237 236 234 233 233 233 233 234 234 233 232 232 233 234 235 237 240 242 243 243 243 244 246 249 250 250 249 249 249 251 253 254 256 258 259 260 262 264 265 266 267 268 270 271 273 275 278 280 281 281 282 282 282 281 280 280 280 280 280 279 278 278 279 281 282 284 285 286 286 287 289 290 291 292 293 294
253 253 253 252 250 248 245 242 239 238 238 237 235 234 233 232 233 235 235 234 233 234 235 237 238 241 244 243 242 242 244 245 247 248 246 245 245 247 250 252 253 254 255 256 257 259 260 262 264 266 267 269 271 273 275 277 278 279 281 282 282 281 281 281 281 282 281 281 282 282 283 284 285 287 288 289 289 290 290 291 292 293 294 295 296
253 252 252 252 252 251 249 246 243 240 239 239 238 237 235 233 232 233 236 236 236 235 236 238 239 241 243 244 242 242 243 244 246 248 248 248 248 251 253 255 256 256 256 257 258 259 260 262 264 265 267 269 271 273 274 276 277 278 279 280 280 280 280 281 282 282 283 283 284 284 285 286 287 288 289 289 291 292 293 294 295 296 297 298 299
254 253 253 252 252 251 250 249 247 244 241 239 239 239 238 236 234 232 234 236 237 237 237 238 239 241 243 245 245 244 244 244 245 247 249 250 251 252 255 257 258 258 259 259 260 260 261 262 263 265 267 269 270 272 273 274 275 275 275 275 276 277 278 279 280 281 282 283 284 285 286 286 287 288 289 291 292 293 294 295 296 297 298 298 299
256 255 254 253 253 252 251 250 249 247 244 241 239 239 240 239 237 234 233 234 236 238 238 238 239 240 242 244 245 246 246 246 246 246 248 249 250 251 254 256 257 258 259 259 260 260 261 262 263 264 266 267 269 270 272 272 273 273 273 274 274 275 276 277 278 279 281 282 283 285 286 287 288 289 290 291 292 293 293 294 295 296 297 298 298
258 257 257 256 255 254 253 251 250 249 247 244 241 239 239 240 239 237 235 234 235 236 238 239 239 240 241 242 244 245 246 247 247 246 246 247 248 250 253 255 256 256 257 259 259 260 261 262 263 264 265 265 266 267 268 269 270 271 272 273 274 275 276 277 278 279 280 281 283 284 285 287 288 289 290 291 291 292 293 294 295 296 296 297 297
259 259 258 257 256 256 255 254 252 251 249 247 245 241 239 240 240 239 237 236 235 236 237 238 239 240 241 241 242 244 245 246 247 248 248 248 249 251 252 254 255 256 257 258 259 260 262 263 263 263 264 264 265 265 266 267 268 270 271 272 273 274 275 276 277 278 280 281 282 284 285 286 287 288 288 289 290 290 291 292 293 294 295 295 296
260 260 259 258 257 256 256 256 255 254 252 251 249 245 242 240 240 240 239 238 237 237 237 238 239 240 241 241 242 243 245 246 247 248 249 250 251 253 253 254 254 255 257 258 259 259 260 261 262 262 263 263 264 265 266 267 268 268 269 270 271 273 274 275 276 278 279 280 282 283 284 285 285 286 287 287 288 289 290 291 292 293 293 294 295
260 260 260 259 258 258 257 256 256 256 255 254 252 250 247 243 241 241 241 240 238 238 238 238 239 239 240 241 241 242 242 244 245 247 249 250 251 252 253 254 255 255 255 256 258 258 259 259 260 261 262 262 263 264 265 266 267 268 269 270 271 272 273 275 276 277 278 279 280 281 282 283 284 284 285 286 287 288 289 290 291 292 293 293 294
262 261 261 260 260 260 259 258 257 256 256 256 255 253 251 248 244 242 241 241 240 239 239 239 240 240 240 241 241 240 240 240 241 243 245 247 248 249 250 252 253 254 254 255 256 257 257 258 258 259 260 261 262 263 264 265 266 268 269 270 271 272 274 275 276 277 278 278 279 280 281 282 283 283 284 285 286 287 288 289 290 291 292 292 293
264 263 262 261 261 260 260 259 259 258 257 256 256 255 254 252 249 245 243 241 241 240 240 240 240 241 241 242 242 241 241 240 240 240 242 243 245 246 248 249 250 251 252 253 254 255 256 256 257 258 259 260 261 262 264 265 266 267 269 270 271 272 274 275 275 276 277 278 278 279 280 281 281 282 283 284 285 286 287 288 289 290 291 291 292
264 263 263 262 261 260 259 258 258 258 257 256 256 255 255 253 251 249 247 244 242 241 241 241 241 241 242 242 243 243 243 242 241 240 240 241 243 244 246 247 248 249 250 251 252 253 254 255 256 257 258 259 261 262 263 264 266 267 268 269 271 272 273 274 274 275 276 277 277 278 279 280 280 281 282 283 284 285 286 287 288 289 289 290 291
266 265 263 262 261 260 259 257 256 256 256 256 256 255 254 253 252 251 250 248 246 244 243 242 242 243 243 243 243 244 244 244 244 243 242 242 242 243 245 246 247 248 249 250 251 252 254 255 256 257 258 260 261 262 263 264 266 267 268 269 270 271 272 273 273 274 275 276 277 277 278 279 280 280 281 282 283 284 285 286 287 288 289 290 291
270 268 266 265 263 261 260 258 257 256 255 255 255 254 254 253 252 251 250 249 248 247 246 245 244 244 244 244 244 244 244 244 245 245 245 244 244 244 245 245 246 247 248 249 250 251 253 255 256 257 259 260 261 262 263 264 266 267 268 269 269 270 271 272 272 273 274 275 276 277 277 278 279 280 281 282 283 284 285 286 286 287 289 290 291
275 273 270 268 266 264 262 261 259 258 256 255 254 254 253 253 252 251 250 249 249 248 248 247 247 246 246 246 245 245 245 245 245 245 246 246 246 246 246 246 246 247 248 249 250 251 252 254 255 257 258 260 261 262 263 265 266 267 268 268 269 269 270 271 272 272 273 274 275 276 277 278 279 280 281 282 283 283 284 286 287 288 289 290 291
274 274 273 272 270 268 266 264 262 261 259 257 256 255 254 253 252 252 251 250 249 248 248 248 248 248 247 247 247 247 246 246 246 246 246 246 247 247 247 247 248 248 248 249 250 251 252 253 254 256 257 259 260 262 263 264 265 266 267 267 268 269 269 270 271 272 273 273 274 275 276 277 278 279 280 281 282 283 285 286 287 288 289 290 291
273 271 271 271 271 271 270 268 266 264 262 260 259 257 256 254 253 252 252 251 250 249 249 248 248 248 248 248 248 248 248 248 247 247 247 247 247 247 248 248 249 249 250 250 251 252 253 254 255 256 257 258 260 261 262 263 264 265 265 266 267 268 269 269 270 271 272 273 274 275 276 277 278 279 280 281 283 284 285 286 287 288 289 290 291
282 278 274 271 269 269 269 269 268 267 265 263 261 260 258 257 255 254 253 252 252 251 250 250 249 248 248 248 248 248 249 249 248 248 248 247 248 248 248 249 249 250 250 251 252 253 253 254 255 256 257 258 259 260 261 262 263 263 264 265 266 267 268 269 270 271 272 273 274 275 276 277 278 279 280 281 283 284 285 286 287 288 289 291 292
288 286 283 280 276 272 270 268 268 267 267 265 264 262 260 259 258 257 256 255 254 253 252 252 251 250 249 248 248 248 248 249 249 249 249 248 248 249 249 249 250 250 251 251 252 253 254 255 255 256 257 258 259 260 261 261 262 263 264 265 266 267 268 269 270 271 272 273 274 275 276 277 278 279 280 281 283 284 285 286 287 288 290 291 292
287 286 285 284 282 280 277 274 271 268 266 265 264 263 262 261 260 259 258 257 257 256 255 254 253 253 252 251 250 249 249 249 249 249 249 249 249 250 250 250 251 251 252 252 253 254 254 255 256 256 257 258 259 260 260 261 262 263 264 265 266 267 268 269 270 271 272 273 274 275 276 278 279 280 281 282 283 284 285 286 288 289 290 291 292
288 286 284 283 282 281 280 279 277 274 271 268 266 264 263 262 261 260 259 259 258 258 257 257 256 255 255 254 254 253 252 251 250 250 250 250 250 250 251 251 252 252 252 253 254 254 255 256 257 257 258 259 260 260 261 262 263 264 265 266 267 268 269 270 271 272 273 274 275 276 277 278 279 280 281 282 283 284 285 287 288 289 290 292 293
293 290 288 285 283 281 280 278 278 276 275 273 270 267 265 263 262 261 260 260 259 259 258 258 258 258 257 257 257 256 255 254 253 252 252 251 251 251 251 252 252 253 253 254 254 255 256 256 257 258 258 259 260 261 262 263 264 265 266 266 267 268 269 270 271 272 273 274 275 276 277 278 279 280 281 282 283 284 285 287 288 290 291 292 293
302 297 293 290 287 284 282 280 278 276 275 274 273 271 269 267 265 263 262 261 260 260 259 259 259 259 259 259 259 259 258 257 256 255 255 254 253 253 253 253 253 253 254 255 255 256 256 257 257 258 259 260 260 261 262 263 264 264 265 266 267 268 268 269 270 271 272 273 274 275 276 277 278 279 281 282 283 285 286 287 289 290 291 292 293
309 306 302 298 294 291 287 284 281 279 276 274 273 272 271 270 268 266 264 263 261 261 260 259 259 259 259 259 260 260 260 259 259 258 257 257 256 255 255 255 255 255 255 255 256 256 257 258 258 259 259 260 261 261 262 263 264 264 265 266 267 267 268 269 270 271 272 273 274 275 276 278 279 280 282 283 284 286 287 288 289 290 291 291 292
315 313 310 307 303 299 295 291 288 285 281 278 276 274 272 271 270 269 268 266 264 263 261 260 259 259 259 259 260 260 260 260 260 260 259 259 258 258 257 257 257 257 257 257 257 258 258 259 259 260 260 261 261 262 263 264 264 265 266 267 268 268 269 270 271 272 273 274 275 276 278 279 280 281 283 284 285 286 287 288 289 290 290 291 291
319 318 316 313 311 307 304 300 296 292 288 285 282 279 276 274 272 271 270 269 267 266 264 263 261 261 260 260 260 260 260 260 260 260 260 260 260 259 259 258 258 258 258 258 258 259 259 259 260 260 261 262 262 263 264 264 265 266 267 268 269 270 270 271 272 273 274 275 276 277 278 279 281 282 283 284 285 286 287 288 288 289 289 290 290
323 321 320 318 316 313 311 307 304 300 296 292 289 285 282 279 276 274 273 271 270 269 267 266 264 263 262 261 260 260 260 260 260 260 260 260 260 260 260 260 260 259 259 259 260 260 260 260 261 261 262 262 263 264 264 265 266 267 267 268 269 270 271 272 273 274 275 276 277 278 279 280 281 282 283 284 285 286 286 287 287 288 288 289 290
Height
10589 10593 10596 10599 10602 10605 10610 10614 10619 10623 10626 10629 10632 10635 10638 10643 10647 10649 10650 10650 10652 10654 10656 10659 10661 10662 10663 10664 10665 10666 10667 10667 10668 10669 10669 10670 10670 10671 10672 10672 10673 10673 10673 10673 10674 10674 10674 10674 10674 10674 10674 10674 10674 10674 10674 10674 10674 10673 10671 10670 10668 10668 10667 10667 10666 10666 10666 10665 10663 10662 10661 10660 10659 10658 10657 10656 10656 10655 10654 10653 10652 10651 10649 10648 10646
10585 10588 10592 10595 10597 10601 10605 10610 10614 10618 10621 10625 10628 10631 10635 10638 10642 10643 10644 10645 10647 10649 10652 10654 10656 10658 10659 10659 10660 10661 10662 10662 10663 10663 10663 10664 10665 10666 10667 10668 10668 10668 10669 10669 10669 10669 10669 10669 10669 10669 10669 10669 10669 10669 10670 10669 10669 10668 10667 10665 10664 10663 10663 10662 10662 10661 10661 10660 10659 10658 10657 10656 10654 10653 10653 10652 10652 10651 10650 10649 10648 10647 10645 10644 10643
10581 10584 10588 10591 10594 10597 10602 10606 10610 10613 10616 10620 10623 10625 10629 10632 10635 10637 10639 10640 10642 10645 10647 10650 10653 10656 10655 10654 10654 10656 10657 10658 10658 10657 10658 10659 10660 10661 10662 10663 10663 10663 10664 10664 10664 10664 10664 10665 10665 10665 10664 10664 10664 10664 10664 10664 10664 10663 10662 10661 10659 10658 10658 10657 10657 10657 10657 10655 10654 10653 10652 10651 10650 10649 10649 10648 10648 10647 10646 10645 10644 10643 10641 10640 10639
10577 10580 10584 10587 10590 10594 10598 10602 10605 10608 10611 10614 10616 10619 10623 10626 10629 10632 10634 10636 10638 10641 10643 10646 10649 10651 10649 10648 10648 10650 10651 10652 10652 10653 10653 10654 10655 10656 10657 10658 10659 10659 10659 10659 10659 10659 10659 10660 10660 10660 10659 10659 10659 10659 10659 10659 10659 10658 10657 10656 10655 10653 10653 10652 10652 10652 10652 10651 10649 10648 10647 10646 10646 10645 10644 10644 10644 10643 10642 10641 10640 10639 10637 10636 10635
10573 10577 10581 10584 10587 10590 10594 10596 10599 10602 10605 10608 10611 10615 10618 10621 10624 10627 10629 10632 10634 10636 10637 10639 10641 10642 10642 10641 10641 10643 10644 10645 10646 10648 10648 10649 10650 10651 10652 10653 10654 10654 10654 10654 10654 10653 10654 10655 10655 10655 10654 10653 10653 10653 10653 10654 10654 10653 10652 10651 10650 10649 10648 10647 10647 10647 10647 10646 10645 10644 10642 10642 10641 10640 10640 10639 10639 10638 10638 10637 10636 10634 10633 10632 10631
10571 10574 10578 10581 10583 10586 10589 10592 10594 10597 10601 10604 10607 10611 10614 10616 10619 10621 10624 10626 10627 10629 10631 10633 10634 10635 10635 10633 10633 10635 10637 10639 10641 10643 10643 10645 10645 10646 10647 10647 10648 10648 10648 10648 10648 10648 10648 10649 10649 10650 10649 10648 10648 10647 10648 10648 10648 10648 10647 10645 10644 10643 10643 10642 10642 10642 10642 10641 10640 10639 10638 10637 10636 10636 10635 10635 10634 10633 10632 10632 10631 10630 10628 10627 10626
10568 10571 10574 10577 10580 10582 10585 10587 10590 10593 10596 10599 10602 10605 10608 10611 10613 10615 10617 10619 10620 10622 10625 10627 10628 10629 10629 10626 10627 10630 10632 10634 10636 10638 10639 10640 10640 10641 10642 10642 10642 10643 10643 10643 10643 10643 10643 10643 10644 10644 10644 10643 10642 10642 10642 10643 10643 10643 10641 10639 10639 10638 10638 10637 10637 10636 10636 10636 10635 10635 10634 10633 10632 10631 10630 10630 10629 10628 10627 10627 10626 10624 10623 10622 10621
10565 10568 10570 10573 10575 10578 10581 10583 10586 10589 10592 10594 10597 10600 10603 10605 10607 10610 10611 10612 10614 10617 10619 10621 10622 10623 10623 10622 10622 10626 10629 10630 10632 10633 10633 10634 10635 10635 10636 10636 10637 10637 10637 10638 10638 10638 10638 10637 10638 10639 10638 10638 10637 10637 10637 10637 10638 10637 10634 10632 10634 10634 10633 10633 10632 10631 10631 10631 10630 10629 10629 10628 10627 10626 10626 10625 10624 10623 10622 10621 10620 10618 10617 10616 10615
10561 10564 10567 10569 10571 10574 10576 10579 10582 10585 10588 10590 10592 10595 10598 10600 10603 10605 10606 10608 10610 10611 10613 10615 10617 10618 10619 10617 10617 10621 10624 10625 10626 10627 10627 10628 10629 10630 10630 10631 10631 10632 10632 10633 10633 10633 10632 10632 10633 10633 10633 10633 10632 10632 10632 10631 10632 10632 10628 10626 10629 10630 10629 10628 10627 10626 10626 10625 10625 10624 10623 10623 10622 10621 10621 10620 10619 10618 10616 10615 10614 10613 10611 10610 10609
10557 10560 10562 10565 10567 10570 10572 10575 10577 10580 10583 10585 10588 10590 10593 10596 10598 10600 10602 10603 10605 10606 10608 10611 10612 10613 10613 10612 10612 10615 10618 10619 10620 10621 10622 10623 10624 10625 10625 10625 10626 10626 10627 10627 10628 10627 10627 10627 10628 10628 10627 10628 10627 10626 10626 10626 10626 10626 10624 10622 10623 10624 10624 10623 10623 10622 10621 10620 10619 10619 10618 10617 10617 10616 10615 10614 10613 10612 10611 10609 10608 10607 10605 10603 10603
10553 10556 10558 10560 10562 10565 10568 10570 10573 10575 10578 10580 10583 10586 10589 10591 10593 10594 10596 10598 10599 10601 10603 10606 10607 10607 10608 10607 10607 10609 10612 10613 10614 10616 10617 10618 10619 10619 10620 10620 10620 10621 10621 10622 10622 10622 10621 10622 10622 10622 10621 10622 10621 10619 10619 10620 10620 10620 10619 10618 10618 10618 10618 10618 10617 10617 10616 10615 10614 10613 10612 10612 10611 10610 10610 10609 10607 10606 10604 10603 10601 10600 10599 10597 10597
10549 10551 10553 10555 10557 10560 10563 10565 10568 10570 10573 10575 10578 10581 10584 10586 10587 10589 10590 10592 10593 10596 10598 10600 10601 10602 10603 10602 10602 10604 10606 10607 10608 10610 10612 10613 10613 10613 10613 10613 10614 10615 10615 10616 10616 10616 10616 10616 10616 10616 10615 10616 10615 10612 10612 10614 10615 10614 10614 10613 10613 10613 10613 10612 10612 10612 10611 10610 10609 10608 10607 10607 10606 10605 10604 10603 10601 10600 10598 10597 10595 10593 10592 10591 10590
10544 10546 10548 10549 10551 10554 10557 10560 10562 10565 10568 10570 10573 10576 10579 10581 10582 10583 10584 10586 10589 10591 10592 10594 10595 10597 10596 10595 10596 10599 10600 10601 10601 10604 10606 10606 10606 10606 10607 10607 10608 10608 10609 10609 10609 10609 10610 10610 10609 10609 10609 10609 10609 10608 10607 10608 10608 10608 10608 10607 10607 10607 10606 10606 10606 10605 10605 10604 10603 10602 10602 10601 10600 10599 10598 10596 10595 10594 10592 10591 10589 10587 10586 10584 10583
10539 10541 10543 10544 10546 10548 10551 10554 10556 10559 10562 10565 10568 10571 10573 10576 10577 10578 10579 10581 10583 10585 10587 10588 10590 10591 10590 10588 10589 10592 10594 10594 10595 10597 10599 10599 10599 10600 10600 10601 10601 10602 10602 10602 10603 10603 10603 10603 10603 10602 10602 10602 10603 10602 10602 10601 10601 10602 10601 10601 10600 10600 10600 10600 10599 10599 10598 10597 10597 10596 10595 10594 10593 10592 10591 10590 10588 10587 10585 10584 10582 10580 10579 10577 10576
10534 10535 10537 10539 10541 10543 10546 10548 10551 10553 10556 10559 10562 10565 10568 10570 10572 10574 10575 10576 10577 10579 10582 10583 10584 10585 10585 10582 10582 10584 10586 10587 10588 10590 10592 10592 10592 10593 10594 10594 10594 10595 10595 10595 10595 10596 10596 10596 10595 10595 10595 10596 10596 10596 10596 10595 10595 10595 10595 10594 10593 10593 10593 10593 10592 10591 10591 10590 10589 10589 10588 10587 10586 10585 10584 10583 10581 10580 10578 10577 10575 10573 10572 10570 10569
10529 10531 10532 10534 10536 10538 10540 10543 10545 10547 10550 10553 10555 10558 10561 10563 10566 10568 10570 10571 10572 10574 10576 10577 10578 10578 10578 10577 10576 10577 10578 10580 10582 10583 10584 10585 10586 10586 10587 10587 10587 10587 10588 10588 10588 10589 10589 10588 10588 10588 10589 10589 10589 10589 10589 10589 10588 10588 10588 10587 10586 10585 10586 10585 10585 10584 10583 10582 10582 10581 10581 10580 10579 10578 10577 10575 10574 10572 10571 10570 10568 10566 10565 10563 10561
10524 10526 10528 10529 10530 10532 10534 10537 10540 10541 10543 10546 10549 10551 10554 10556 10559 10562 10564 10565 10566 10568 10570 10571 10572 10571 10571 10570 10570 10570 10571 10572 10574 10576 10577 10577 10578 10579 10579 10580 10580 10580 10580 10580 10580 10581 10581 10581 10580 10581 10582 10582 10582 10581 10581 10582 10581 10580 10580 10579 10578 10578 10578 10578 10577 10576 10576 10575 10574 10574 10573 10572 10571 10570 10569 10568 10566 10565 10563 10562 10560 10558 10557 10555 10552
10518 10520 10522 10523 10525 10526 10527 10530 10533 10535 10537 10539 10542 10544 10547 10550 10552 10555 10558 10559 10560 10562 10563 10564 10565 10564 10563 10564 10564 10563 10564 10565 10567 10568 10569 10570 10571 10571 10571 10572 10572 10572 10572 10572 10573 10573 10573 10572 10572 10572 10573 10574 10574 10574 10573 10574 10574 10573 10572 10571 10571 10570 10570 10569 10569 10568 10568 10567 10567 10566 10565 10564 10563 10562 10561 10560 10558 10557 10555 10554 10552 10550 10548 10546 10543
10511 10513 10515 10517 10518 10519 10520 10523 10525 10528 10530 10532 10534 10537 10540 10543 10545 10548 10550 10552 10553 10554 10555 10556 10557 10556 10555 10557 10558 10557 10558 10559 10559 10560 10561 10562 10563 10563 10564 10564 10564 10564 10565 10564 10564 10564 10564 10563 10563 10563 10564 10565 10565 10565 10565 10565 10565 10565 10564 10564 10564 10563 10561 10560 10560 10560 10560 10559 10559 10558 10557 10556 10554 10554 10553 10552 10550 10549 10547 10545 10543 10541 10539 10537 10534
10504 10506 10507 10509 10511 10513 10514 10516 10518 10520 10522 10524 10527 10530 10532 10535 10537 10539 10542 10544 10545 10547 10547 10548 10548 10547 10547 10550 10551 10550 10552 10551 10550 10552 10553 10554 10555 10556 10556 10556 10556 10556 10557 10556 10556 10556 10555 10554 10554 10555 10555 10555 10557 10557 10557 10556 10557 10557 10557 10557 10556 10555 10553 10552 10552 10552 10551 10551 10550 10550 10549 10547 10546 10545 10544 10543 10542 10540 10538 10536 10534 10532 10530 10528 10526
10496 10498 10500 10502 10504 10506 10507 10509 10511 10513 10515 10517 10519 10522 10524 10526 10529 10531 10533 10535 10537 10538 10539 10539 10539 10539 10540 10542 10544 10545 10545 10543 10543 10545 10546 10546 10547 10548 10548 10549 10548 10548 10549 10549 10548 10548 10547 10545 10545 10546 10547 10547 10547 10548 10548 10548 10549 10550 10550 10549 10548 10547 10546 10544 10543 10543 10543 10542 10541 10541 10540 10538 10538 10537 10536 10535 10533 10531 10529 10527 10525 10524 10522 10520 10518
10489 10490 10492 10494 10496 10498 10500 10502 10504 10506 10508 10509 10512 10515 10517 10519 10521 10523 10525 10527 10529 10530 10531 10532 10532 10532 10533 10534 10536 10538 10539 10536 10536 10538 10538 10538 10540 10541 10541 10540 10539 10539 10540 10541 10540 10539 10538 10536 10535 10537 10538 10538 10538 10539 10539 10540 10541 10541 10542 10541 10539 10538 10537 10536 10535 10534 10534 10533 10532 10531 10531 10530 10529 10528 10527 10526 10525 10523 10521 10519 10517 10515 10513 10511 10508
10482 10483 10484 10486 10487 10490 10492 10494 10496 10498 10500 10502 10504 10507 10509 10511 10513 10515 10517 10519 10521 10522 10524 10525 10526 10526 10526 10527 10528 10531 10532 10531 10530 10530 10530 10531 10533 10533 10532 10530 10530 10530 10531 10532 10531 10530 10529 10528 10527 10528 10528 10527 10526 10527 10528 10529 10530 10530 10530 10530 10529 10528 10527 10526 10525 10525 10525 10524 10523 10522 10521 10521 10520 10519 10518 10517 10516 10514 10512 10510 10508 10506 10503 10500 10497
10475 10475 10476 10477 10479 10481 10483 10486 10487 10489 10492 10494 10496 10499 10501 10502 10504 10507 10510 10512 10513 10515 10516 10517 10518 10519 10520 10520 10521 10523 10524 10524 10524 10523 10523 10524 10525 10524 10523 10523 10522 10522 10523 10523 10523 10522 10521 10520 10519 10519 10519 10518 10517 10517 10517 10518 10519 10519 10519 10518 10518 10518 10518 10517 10515 10515 10514 10514 10514 10513 10512 10511 10510 10510 10509 10508 10506 10504 10502 10500 10497 10495 10491 10488 10485
10467 10467 10468 10469 10470 10472 10474 10477 10479 10480 10482 10485 10488 10489 10491 10494 10496 10498 10501 10503 10504 10506 10508 10509 10510 10512 10513 10513 10514 10515 10515 10516 10517 10517 10516 10516 10516 10515 10515 10515 10515 10516 10516 10515 10515 10514 10513 10512 10510 10510 10510 10509 10509 10509 10509 10509 10509 10509 10509 10509 10508 10508 10508 10507 10506 10505 10505 10504 10503 10503 10502 10501 10500 10499 10497 10496 10494 10492 10490 10487 10485 10482 10479 10476 10473
10458 10459 10459 10460 10461 10463 10465 10467 10470 10472 10474 10476 10479 10480 10482 10484 10487 10489 10491 10493 10495 10498 10500 10501 10502 10503 10504 10505 10505 10506 10507 10507 10507 10507 10506 10506 10506 10505 10505 10506 10506 10507 10507 10507 10506 10506 10505 10503 10501 10500 10500 10499 10499 10499 10500 10501 10501 10500 10500 10499 10498 10497 10496 10495 10494 10493 10492 10491 10490 10489 10489 10487 10486 10485 10483 10482 10481 10479 10477 10475 10472 10470 10467 10464 10461
10450 10450 10450 10451 10452 10453 10455 10457 10460 10463 10465 10467 10470 10471 10473 10475 10478 10481 10482 10483 10486 10489 10491 10492 10494 10495 10495 10496 10496 10497 10498 10498 10497 10497 10496 10496 10497 10497 10497 10497 10496 10496 10497 10499 10498 10498 10497 10495 10494 10493 10491 10491 10490 10490 10490 10492 10492 10491 10491 10489 10487 10486 10485 10483 10482 10481 10480 10479 10478 10477 10477 10476 10475 10473 10472 10470 10468 10466 10464 10461 10459 10456 10453 10450 10447
10440 10441 10441 10441 10442 10443 10445 10446 10448 10451 10455 10457 10460 10462 10463 10465 10468 10471 10473 10474 10476 10479 10481 10483 10484 10486 10486 10487 10487 10488 10489 10489 10489 10488 10488 10488 10488 10489 10488 10488 10488 10488 10488 10489 10490 10490 10489 10488 10487 10486 10484 10483 10482 10481 10482 10482 10483 10482 10482 10481 10479 10478 10476 10475 10473 10472 10470 10469 10468 10467 10466 10465 10463 10462 10460 10457 10455 10453 10450 10448 10445 10443 10440 10437 10435
10430 10431 10432 10432 10432 10432 10434 10436 10437 10439 10442 10446 10449 10451 10452 10453 10456 10460 10463 10464 10466 10468 10470 10473 10475 10476 10477 10478 10478 10478 10479 10480 10480 10480 10480 10480 10480 10480 10480 10480 10480 10480 10479 10480 10480 10480 10480 10480 10480 10479 10478 10476 10475 10474 10473 10473 10472 10472 10471 10471 10470 10469 10467 10466 10465 10463 10461 10460 10458 10456 10455 10453 10451 10449 10447 10445 10443 10440 10438 10436 10434 10431 10428 10426 10423
10421 10421 10422 10422 10422 10422 10423 10425 10426 10428 10430 10433 10436 10440 10441 10442 10444 10448 10451 10454 10456 10458 10460 10462 10464 10465 10467 10468 10468 10469 10470 10470 10470 10471 10471 10471 10471 10471 10471 10471 10471 10471 10471 10471 10471 10470 10470 10470 10471 10471 10470 10470 10468 10467 10466 10465 10463 10462 10461 10460 10460 10459 10458 10457 10455 10454 10452 10451 10449 10447 10445 10443 10441 10438 10436 10434 10431 10429 10427 10424 10422 10420 10417 10415 10412
10410 10411 10411 10412 10412 10412 10413 10414 10415 10417 10418 10420 10423 10427 10430 10430 10432 10435 10439 10442 10446 10448 10449 10450 10452 10454 10455 10457 10458 10459 10460 10460 10461 10461 10461 10462 10462 10462 10462 10462 10462 10462 10462 10462 10462 10461 10461 10461 10461 10462 10461 10461 10460 10459 10458 10457 10455 10454 10453 10452 10451 10449 10448 10447 10446 10444 10443 10441 10439 10437 10435 10433 10431 10428 10426 10423 10421 10419 10416 10414 10411 10409 10406 10404 10401
10398 10399 10399 10400 10401 10401 10402 10403 10404 10405 10406 10408 10411 10414 10417 10419 10420 10422 10425 10430 10434 10436 10437 10439 10441 10443 10444 10445 10447 10449 10449 10450 10450 10451 10451 10452 10452 10452 10452 10453 10453 10453 10453 10453 10453 10452 10451 10450 10451 10451 10451 10451 10451 10449 10448 10447 10446 10445 10444 10443 10441 10440 10439 10438 10436 10435 10433 10431 10429 10427 10425 10423 10421 10418 10416 10413 10411 10409 10406 10404 10401 10398 10395 10393 10390
10386 10387 10387 10387 10388 10389 10390 10391 10392 10393 10394 10396 10398 10401 10404 10407 10409 10410 10412 10416 10420 10423 10425 10427 10429 10431 10433 10434 10436 10437 10438 10439 10439 10440 10440 10441 10441 10442 10442 10442 10443 10443 10443 10443 10443 10442 10441 10441 10440 10440 10440 10440 10439 10439 10437 10436 10435 10434 10433 10432 10431 10430 10429 10428 10426 10424 10423 10421 10419 10417 10415 10413 10410 10408 10405 10403 10401 10398 10396 10393 10390 10387 10384 10382 10379
10374 10375 10375 10375 10375 10376 10376 10377 10379 10380 10381 10383 10385 10387 10390 10394 10396 10398 10400 10403 10407 10410 10412 10414 10417 10419 10421 10423 10424 10425 10427 10428 10429 10429 10430 10430 10431 10431 10432 10432 10433 10433 10433 10433 10433 10432 10432 10431 10430 10430 10429 10428 10427 10427 10427 10426 10424 10423 10422 10421 10420 10420 10418 10417 10415 10414 10412 10410 10409 10407 10405 10402 10400 10397 10395 10392 10390 10387 10384 10381 10379 10376 10373 10371 10368
10363 10363 10363 10363 10363 10364 10364 10365 10365 10367 10368 10370 10371 10374 10377 10380 10383 10386 10388 10391 10393 10396 10399 10401 10404 10407 10409 10411 10412 10413 10415 10416 10418 10419 10419 10420 10420 10421 10421 10422 10422 10422 10422 10422 10422 10422 10421 10420 10419 10419 10418 10418 10417 10416 10416 10415 10415 10414 10413 10411 10410 10409 10407 10406 10404 10402 10401 10399 10398 10396 10394 10392 10389 10386 10384 10381 10379 10376 10373 10370 10368 10365 10363 10360 10357
10352 10351 10351 10351 10352 10352 10353 10353 10354 10354 10356 10357 10359 10361 10364 10367 10370 10373 10376 10379 10381 10383 10386 10388 10390 10393 10396 10398 10399 10401 10403 10404 10405 10407 10408 10409 10409 10410 10410 10411 10411 10412 10412 10412 10411 10410 10409 10409 10409 10409 10409 10408 10407 10407 10406 10405 10404 10404 10403 10401 10400 10398 10396 10395 10393 10391 10389 10388 10386 10384 10382 10380 10378 10375 10373 10370 10368 10365 10362 10360 10357 10355 10352 10349 10345
10341 10340 10340 10340 10340 10340 10341 10342 10342 10343 10344 10346 10347 10349 10352 10355 10357 10360 10363 10366 10368 10371 10373 10375 10377 10380 10382 10384 10386 10388 10390 10391 10392 10394 10395 10397 10398 10399 10399 10400 10400 10400 10401 10401 10400 10399 10399 10399 10399 10399 10398 10398 10397 10396 10395 10394 10393 10393 10392 10390 10389 10387 10385 10384 10382 10380 10378 10376 10374 10373 10371 10368 10366 10364 10362 10359 10357 10354 10352 10349 10346 10343 10340 10337 10334
10331 10330 10329 10329 10329 10329 10330 10330 10331 10332 10333 10335 10336 10338 10340 10343 10345 10348 10350 10353 10356 10358 10361 10363 10365 10366 10368 10370 10373 10375 10377 10378 10379 10381 10383 10384 10386 10387 10388 10388 10388 10389 10389 10389 10389 10389 10388 10388 10387 10387 10387 10386 10385 10384 10384 10383 10382 10381 10380 10378 10377 10375 10374 10372 10370 10368 10366 10364 10363 10361 10359 10357 10354 10352 10350 10348 10345 10342 10340 10337 10334 10331 10328 10325 10322
10321 10320 10320 10319 10319 10319 10320 10320 10321 10321 10323 10324 10325 10327 10329 10331 10333 10336 10338 10340 10343 10345 10347 10350 10352 10354 10355 10357 10359 10361 10363 10365 10366 10368 10369 10371 10373 10374 10375 10376 10376 10376 10376 10376 10376 10377 10377 10377 10376 10376 10375 10374 10373 10373 10372 10371 10370 10369 10368 10366 10365 10363 10362 10361 10359 10357 10355 10353 10351 10349 10347 10345 10343 10340 10338 10335 10333 10330 10328 10325 10322 10319 10316 10313 10309
10312 10312 10311 10311 10310 10310 10311 10311 10311 10312 10312 10313 10314 10316 10317 10319 10321 10323 10325 10328 10330 10332 10334 10337 10339 10341 10343 10344 10345 10347 10350 10352 10353 10354 10356 10357 10359 10360 10361 10362 10363 10363 10364 10364 10364 10364 10364 10365 10365 10364 10364 10363 10362 10361 10360 10359 10358 10357 10356 10355 10353 10352 10351 10349 10347 10346 10344 10342 10340 10338 10335 10333 10330 10328 10325 10323 10321 10318 10316 10313 10310 10307 10304 10300 10297
10305 10304 10303 10303 10302 10302 10302 10302 10302 10303 10303 10304 10304 10305 10306 10307 10309 10311 10313 10315 10317 10319 10321 10323 10325 10327 10329 10331 10332 10333 10335 10337 10339 10341 10342 10344 10345 10347 10348 10349 10349 10350 10351 10351 10351 10351 10351 10351 10352 10352 10352 10351 10350 10349 10348 10347 10346 10345 10344 10343 10341 10340 10338 10337 10335 10333 10331 10329 10328 10325 10323 10321 10318 10316 10313 10311 10309 10306 10304 10301 10298 10295 10292 10288 10284
10297 10296 10296 10295 10295 10295 10294 10294 10293 10293 10294 10294 10294 10294 10295 10296 10297 10298 10300 10302 10304 10306 10308 10309 10311 10313 10315 10317 10319 10320 10321 10323 10325 10327 10328 10330 10331 10333 10334 10335 10336 10337 10338 10338 10338 10338 10338 10338 10339 10339 10339 10338 10338 10337 10336 10334 10333 10332 10331 10330 10329 10327 10326 10324 10322 10321 10319 10317 10315 10313 10311 10308 10306 10304 10301 10299 10297 10294 10292 10289 10286 10283 10280 10276 10272
10290 10289 10288 10287 10287 10287 10287 10287 10286 10285 10285 10284 10284 10285 10285 10285 10286 10287 10288 10289 10291 10293 10294 10295 10297 10299 10300 10302 10305 10306 10307 10308 10310 10312 10314 10316 10317 10319 10320 10321 10322 10323 10324 10324 10324 10324 10324 10325 10326 10326 10326 10325 10324 10323 10322 10321 10320 10319 10318 10317 10316 10315 10313 10312 10310 10308 10307 10305 10303 10300 10298 10296 10294 10292 10289 10287 10285 10282 10280 10277 10274 10271 10267 10264 10260
10284 10283 10281 10280 10279 10278 10278 10278 10278 10277 10277 10276 10276 10276 10276 10276 10276 10276 10277 10278 10279 10280 10282 10283 10284 10285 10286 10287 10289 10292 10293 10295 10296 10298 10299 10301 10303 10305 10306 10307 10308 10309 10310 10310 10310 10311 10311 10311 10312 10312 10312 10312 10311 10310 10309 10308 10307 10306 10305 10304 10303 10302 10301 10299 10297 10296 10294 10292 10290 10288 10286 10283 10281 10279 10277 10275 10272 10270 10267 10264 10262 10259 10255 10252 10249
10279 10277 10275 10274 10272 10271 10270 10269 10269 10268 10268 10268 10268 10267 10267 10267 10267 10267 10267 10268 10268 10269 10270 10271 10272 10272 10273 10273 10275 10276 10278 10280 10282 10283 10285 10286 10288 10290 10291 10292 10293 10294 10295 10296 10296 10297 10297 10298 10298 10298 10298 10298 10297 10297 10296 10295 10294 10293 10292 10292 10290 10289 10288 10286 10285 10283 10281 10279 10277 10275 10273 10271 10269 10267 10264 10262 10260 10257 10254 10252 10250 10247 10243 10240 10237
10274 10272 10270 10268 10266 10264 10263 10262 10261 10260 10260 10259 10259 10259 10258 10258 10258 10258 10257 10258 10258 10258 10259 10259 10260 10260 10261 10261 10261 10263 10264 10266 10268 10269 10270 10272 10273 10275 10276 10277 10279 10280 10281 10281 10282 10283 10283 10283 10284 10284 10284 10284 10284 10283 10282 10282 10281 10280 10279 10278 10277 10276 10275 10273 10272 10270 10268 10267 10265 10262 10260 10258 10256 10254 10251 10249 10247 10245 10242 10240 10238 10235 10232 10228 10225
10268 10267 10265 10263 10261 10259 10257 10255 10254 10253 10252 10251 10250 10250 10249 10249 10249 10248 10248 10248 10248 10249 10249 10249 10249 10249 10249 10249 10249 10250 10251 10252 10254 10255 10256 10258 10259 10260 10262 10263 10264 10265 10266 10267 10267 10268 10269 10269 10269 10269 10270 10270 10269 10269 10269 10268 10267 10267 10266 10265 10264 10262 10261 10259 10258 10257 10255 10254 10252 10250 10247 10245 10243 10241 10239 10237 10235 10233 10231 10228 10226 10223 10220 10216 10213
10262 10261 10259 10257 10255 10253 10251 10249 10248 10246 10245 10244 10243 10242 10241 10240 10239 10239 10239 10238 10238 10239 10239 10239 10239 10239 10239 10238 10238 10238 10238 10239 10240 10241 10242 10244 10246 10247 10248 10249 10250 10251 10252 10252 10253 10253 10254 10254 10254 10255 10255 10255 10255 10255 10255 10254 10253 10253 10252 10251 10249 10248 10247 10246 10244 10243 10242 10241 10239 10237 10235 10232 10230 10228 10226 10225 10223 10221 10218 10216 10213 10211 10208 10204 10200
10257 10255 10253 10251 10249 10247 10245 10244 10242 10240 10238 10237 10236 10234 10233 10232 10231 10230 10229 10229 10228 10229 10229 10230 10229 10229 10228 10228 10227 10227 10227 10227 10228 10228 10229 10230 10232 10233 10234 10235 10236 10237 10238 10239 10239 10240 10240 10240 10240 10240 10241 10241 10241 10241 10241 10240 10239 10238 10238 10236 10235 10234 10233 10232 10231 10230 10229 10227 10226 10224 10222 10220 10218 10216 10215 10213 10211 10209 10206 10204 10201 10198 10195 10192 10189
10253 10250 10248 10246 10243 10241 10239 10238 10236 10234 10232 10230 10229 10227 10226 10225 10223 10222 10220 10219 10218 10218 10219 10220 10220 10220 10219 10218 10217 10217 10216 10216 10216 10216 10217 10217 10218 10219 10220 10221 10222 10223 10224 10225 10225 10226 10226 10226 10227 10227 10227 10227 10227 10227 10227 10226 10226 10225 10224 10223 10222 10221 10219 10218 10217 10216 10215 10214 10213 10211 10209 10208 10207 10205 10203 10201 10199 10197 10194 10191 10189 10186 10183 10180 10178
10249 10246 10243 10241 10238 10236 10234 10232 10230 10228 10226 10224 10222 10220 10219 10217 10216 10214 10212 10210 10208 10208 10209 10210 10210 10210 10209 10208 10207 10206 10206 10205 10206 10206 10206 10206 10206 10206 10207 10208 10209 10209 10210 10211 10211 10212 10212 10213 10213 10213 10214 10214 10214 10214 10213 10213 10212 10211 10211 10210 10209 10208 10206 10205 10204 10203 10203 10201 10200 10198 10197 10196 10195 10193 10191 10189 10187 10185 10183 10180 10177 10174 10172 10169 10167